AO-07 1 07530U 74089B 16077.53526568 -.00000023 00000-0 13198-3 0 9995 2 07530 101.5642 50.5626 0012259 127.7875 344.1037 12.53620195891639 FO-29 1 24278U 96046B 16077.84891098 .00000011 00000-0 44535-4 0 9993 2 24278 98.5809 15.0254 0351391 79.1592 284.8883 13.53065339967164 RS-22 1 27939U 03042A 16077.89766998 .00000761 00000-0 14597-3 0 9995 2 27939 97.8736 233.1607 0012024 233.1101 126.9023 14.66353464666445 HO-68 1 36122U 09072B 16077.69978590 -.00000059 00000-0 -43517-4 0 9996 2 36122 100.1549 117.2177 0007434 201.5925 158.4873 13.16333024300571 AO-73 1 39444U 13066AE 16076.80197186 .00001083 00000-0 14284-3 0 9994 2 39444 97.6927 134.0762 0058040 323.9594 35.7712 14.80929767123904 EO-79 1 40025U 14033R 16077.66946069 .00001325 00000-0 15077-3 0 9993 2 40025 97.9351 343.1277 0013066 11.3270 348.8238 14.87876456 94593 XW-2A 1 40903U 15049E 16077.91253068 .00006594 00000-0 19192-3 0 9999 2 40903 97.4503 91.9865 0017891 100.4849 307.6694 15.35609988 27543 XW-2C 1 40906U 15049H 16077.87944471 .00003431 00000-0 19604-3 0 9997 2 40906 97.4552 86.9384 0016232 359.8123 84.8618 15.13255506 27193 LILACSAT-2 1 40908U 15049K 16077.76506444 .00002140 00000-0 12683-3 0 9997 2 40908 97.4613 86.7836 0016723 352.9254 93.4871 15.12337206 27168 XW-2E 1 40909U 15049L 16077.82627521 .00005050 00000-0 28067-3 0 9991 2 40909 97.4555 87.0245 0015240 3.7522 119.8403 15.14042399 27199 UO-11 1 14781U 84021B 16077.18732417 .00000461 00000-0 63503-4 0 9992 2 14781 97.7616 131.9508 0007151 252.5443 107.4989 14.82698820722620 LO-19 1 20442U 90005G 16076.88623565 .00000075 00000-0 43493-4 0 9998 2 20442 098.5373 013.1444 0012844 061.8135 298.4344 14.32804763366073 AO-27 1 22825U 93061C 16076.86166743 .00000058 00000-0 40137-4 0 9991 2 22825 98.7485 32.5930 0007576 222.8119 137.2474 14.29944546172044 IO-26 1 22826U 93061D 16077.83643612 .00000071 00000-0 44801-4 0 9992 2 22826 98.7430 33.7070 0008274 210.5469 149.5232 14.30268170172346 GO-32 1 25397U 98043D 16076.85680441 .00000040 00000-0 36321-4 0 9999 2 25397 98.5577 24.2418 0000363 185.1531 174.9644 14.23587201918721 NO-44 1 26931U 01043C 16077.81088318 .00000045 00000-0 49245-4 0 9994 2 26931 67.0517 188.6490 0007555 268.7631 91.2605 14.30393947755070 SO-50 1 27607U 02058C 16077.50772317 .00000420 00000-0 80199-4 0 9997 2 27607 64.5541 80.9456 0076243 235.8826 123.5027 14.75102016711744 CO-55 1 27844U 03031E 16077.55474759 .00000167 00000-0 95581-4 0 9995 2 27844 98.6949 87.1502 0008922 222.8814 137.1669 14.21926994659429 CO-57 1 27848U 03031J 16076.94036984 .00000133 00000-0 80541-4 0 9998 2 27848 098.7046 086.5912 0008707 233.6306 126.4068 14.21556053659202 CO-65 1 32785U 08021C 16077.21409400 .00001055 00000-0 12212-3 0 9999 2 32785 97.6140 115.2094 0011990 237.5140 122.4918 14.87456469426955 PRISM 1 33493U 09002B 16077.83337536 .00002986 00000-0 28055-3 0 9990 2 33493 98.2280 293.5765 0016272 142.6889 217.5461 14.94679392387587 TISAT-1 1 36799U 10035E 16077.83863983 .00001963 00000-0 21138-3 0 9999 2 36799 98.0220 186.7693 0013167 31.6574 328.5432 14.89610743307821 ALMASAT-1 1 38078U 12006B 16077.04303594 .00038506 37655-5 53971-3 0 9995 2 38078 69.4501 261.0218 0410732 233.5530 122.7117 14.96915001215769 DUCHIFAT-1 1 40021U 14033M 16077.70251790 .00001921 00000-0 20944-3 0 9995 2 40021 97.9377 344.0241 0013685 9.9234 350.2250 14.89106702 94647 NANOSATCBR1 1 40024U 14033Q 16077.78228232 .00001592 00000-0 17698-3 0 9997 2 40024 97.9354 343.6143 0012891 9.9165 350.2304 14.88543609 94631 DTUSAT-2 1 40030U 14033W 16077.69554084 .00001282 00000-0 14739-3 0 9990 2 40030 97.9331 342.6816 0012353 5.3525 354.7821 14.87509840 94576 ANTELSAT 1 40034U 14033AA 16077.68210268 .00000977 00000-0 15500-3 0 9993 2 40034 97.9142 328.2997 0058971 320.8433 38.8515 14.73285356 93701 MET-2/21 1 22782U 93055A 16077.49773079 .00000095 00000-0 72476-4 0 9994 2 22782 82.5514 25.9917 0021061 272.3483 224.9400 13.83786122138532 NOAA-15 1 25338U 98030A 16077.56819904 .00000097 00000-0 59801-4 0 9997 2 25338 98.7834 81.5349 0011780 92.2165 268.0363 14.25710652927935 NOAA-18 1 28654U 05018A 16077.52896036 .00000062 00000-0 59140-4 0 9990 2 28654 99.1983 82.0747 0013293 272.0437 87.9211 14.12274138557791 NOAA-19 1 33591U 09005A 16077.53988147 .00000154 00000-0 10880-3 0 9991 2 33591 99.0296 33.6148 0014893 115.1180 245.1538 14.12051978366208 HUBBLE 1 20580U 90037B 16077.60023867 .00001554 00000-0 86581-4 0 9994 2 20580 28.4695 143.4841 0002553 307.3564 172.3419 15.08246090221275 ISS 1 25544U 98067A 16077.74808676 .00011982 00000-0 18767-3 0 9990 2 25544 51.6438 154.0631 0001649 315.0728 191.1315 15.54170721990759 CO-58 1 28895U 05043F 16077.45892340 .00000645 00000-0 13381-3 0 9994 2 28895 97.8268 256.0381 0017752 145.5539 214.6818 14.63135562553697 CAPE1 1 31130U 07012P 16077.44432267 .00000494 00000-0 11604-3 0 9993 2 31130 98.0226 36.3556 0096585 180.8687 179.2358 14.55862322472787 AAUSAT2 1 32788U 08021F 16077.83390533 .00001611 00000-0 16023-3 0 9998 2 32788 97.6154 123.6806 0011517 208.7339 151.3247 14.92981820427566 DO-64 1 32789U 08021G 16077.78633656 .00006816 00000-0 51482-3 0 9999 2 32789 97.6153 138.5994 0013493 209.4605 150.5861 15.02637027428279 CO-66 1 32791U 08021J 16076.83116295 .00001258 00000-0 13716-3 0 9995 2 32791 97.6151 117.6912 0012537 227.9892 132.0259 14.89604721427048 RS-30 1 32953U 08025A 16077.69154572 .00000010 00000-0 -13620-7 0 9998 2 32953 82.5062 163.5487 0018893 198.0792 161.9619 12.43067889354717 JUGNU 1 37839U 11058B 16077.11646890 .00000388 00000-0 64755-4 0 9991 2 37839 19.9623 341.7929 0019078 185.1130 319.7324 14.12529138228996 SRMSAT 1 37841U 11058D 16076.93626169 .00000358 00000-0 52177-4 0 9992 2 37841 019.9730 015.1770 0012037 099.3190 323.8350 14.10530103228553 AO-71 1 37854U 11061E 16076.90275314 .00009301 00000-0 52367-3 0 9996 2 37854 101.7097 72.9437 0174919 346.2356 13.4117 15.01548189238244 HRBE 1 37855U 11061F 16076.92204246 .00009731 00000-0 53562-3 0 9990 2 37855 101.7214 071.1103 0188969 349.6247 010.1086 15.00446187237683 HORYU-2 1 38340U 12025D 16077.18347991 .00001203 00000-0 18721-3 0 9999 2 38340 98.3482 59.8291 0010723 309.8911 50.1353 14.74918744205915 RS-40 1 38735U 12041C 16077.75714140 .00000040 00000-0 21992-3 0 9994 2 38735 82.4720 248.7646 0016181 304.1486 55.8049 12.42571972165015 BEESAT-3 1 39134U 13015E 16077.00462263 .00006889 00000-0 37349-3 0 9994 2 39134 64.8702 259.4407 0010013 240.5200 119.4927 15.15300850160141 BEESAT-2 1 39136U 13015G 16077.00622055 .00005039 00000-0 29333-3 0 9993 2 39136 64.8714 264.4250 0010335 236.0879 123.9262 15.13103639160053 ZACUBE-1 1 39417U 13066B 16077.21647167 .00000958 00000-0 12906-3 0 9998 2 39417 97.6917 133.9685 0058819 324.2420 35.4859 14.80286633125168 TRITON-1 1 39427U 13066M 16076.81379550 .00000778 00000-0 13360-3 0 9997 2 39427 97.6785 115.9620 0115182 13.5998 346.8266 14.67102926123971 GOMX-1 1 39430U 13066Q 16077.73984531 .00000815 00000-0 15778-3 0 9991 2 39430 97.6786 105.6073 0153763 44.5475 316.7959 14.58506002123399 LO-74 1 39440U 13066AA 16077.84790385 .00000728 00000-0 10992-3 0 9992 2 39440 97.6856 127.5600 0080660 340.4618 19.3505 14.75058682124815 SPROUT 1 39770U 14029E 16077.47278060 .00002209 00000-0 26451-3 0 9991 2 39770 97.8665 175.7769 0009913 31.7810 328.4030 14.85091212 98328 EO-80 1 40032U 14033Y 16077.71751530 .00001278 00000-0 14724-3 0 9999 2 40032 97.9340 342.7139 0012287 5.6155 354.5196 14.87441869 94574 VELOX-1 1 40057U 14034E 16077.78878562 .00001260 00000-0 18802-3 0 9991 2 40057 98.1947 165.2292 0012538 81.2184 279.0438 14.76567887 92391 DAURIA DX 1 1 40071U 14037C 16077.84944804 .00000568 00000-0 81193-4 0 9994 2 40071 98.3314 165.2406 0009896 79.4704 280.7608 14.80750758 91432 UKUBE-1 1 40074U 14037F 16077.78779434 .00001309 00000-0 16850-3 0 9996 2 40074 98.3349 166.9341 0005953 84.0715 276.1174 14.82932898 91529 HODOYOSHI-1 1 40299U 14070B 16077.83715204 .00002812 00000-0 12981-3 0 9994 2 40299 97.4320 160.9174 0012186 249.9194 249.5778 15.20980935 75540 CHUBUSAT-1 1 40300U 14070C 16077.82617869 .00003151 00000-0 15121-3 0 9990 2 40300 97.4288 159.3930 0019805 256.6179 243.3619 15.19451463 75454 QSAT-EOS 1 40301U 14070D 16077.77679986 .00005636 00000-0 25951-3 0 9995 2 40301 97.4237 158.5908 0028250 256.7602 226.6581 15.20349505 75414 FIREBIRD FU3 1 40377U 15003B 16077.81508944 .00009341 00000-0 42629-3 0 9993 2 40377 99.0825 167.4063 0147307 71.5774 290.1402 15.11651638 61974 FIREBIRD FU4 1 40378U 15003C 16077.81202083 .00009345 00000-0 42599-3 0 9999 2 40378 99.0827 167.4136 0147524 71.5458 290.1739 15.11661604 61975 GRIFEX 1 40379U 15003D 16077.78016462 .00007869 00000-0 37237-3 0 9992 2 40379 99.0842 166.7968 0151117 74.4541 287.3308 15.10100002 61942 NO-84 1 40654U 15025X 16070.39606145 .00026651 00000-0 57941-3 0 00574 2 40654 054.9953 133.9230 0216965 187.2557 172.4770 15.23040730008978 NO-83 1 40655U 15025X 16070.39310627 .00035966 00000-0 73716-3 0 00603 2 40655 054.9867 130.5508 0201665 187.7673 171.9469 15.26894128008991 DEORBITSAIL 1 40719U 15032E 16077.12696834 .00001422 00000-0 21676-3 0 9996 2 40719 98.0282 329.5210 0016756 167.9138 192.2476 14.75360750 36912 NUDT-PHONESAT 1 40900U 15049B 16077.72345759 .00007961 00000-0 41688-3 0 9998 2 40900 97.4471 87.1193 0016352 20.6087 67.2493 15.15962070 27215 XW-2D 1 40907U 15049J 16077.82346387 .00003763 00000-0 21465-3 0 9991 2 40907 97.4517 86.7983 0015399 359.1979 124.1772 15.13270727 27183 XW-2F 1 40910U 15049M 16077.87386613 .00004864 00000-0 27387-3 0 9998 2 40910 97.4552 86.9448 0016481 357.6388 89.0873 15.13579831 27082 XW-2B 1 40911U 15049N 16077.82222486 .00003589 00000-0 20491-3 0 9993 2 40911 97.4570 86.9149 0015551 359.3459 124.3105 15.13264216 27085 DCBB 1 40912U 15049P 16077.86415892 .00005110 00000-0 27273-3 0 9990 2 40912 97.4550 87.4377 0016606 354.1983 125.1495 15.15464704 27122 TW-1C 1 40926U 15051B 16077.77343023 .00015087 00000-0 45017-3 0 9994 2 40926 97.2866 115.7504 0015710 24.6413 65.6648 15.34605525 26737 TW-1A 1 40928U 15051D 16077.81066883 .00006675 00000-0 21536-3 0 9990 2 40928 97.2803 115.3984 0015851 38.1750 19.5062 15.32352740 26721 IO-86 1 40931U 15052B 16077.75099340 .00000816 00000-0 24712-4 0 9993 2 40931 5.9989 246.9621 0013690 267.6816 92.1848 14.76438293 25392 AAUSat-5 1 40948U 98067GZ 16075.45781431 .13016099 12363-4 13142-2 0 9998 2 40948 51.6105 144.8409 0002621 342.4028 18.3599 16.37207905 25449 GomX-3 1 40949U 98067HA 16077.72083531 .00055505 00000-0 45982-3 0 9997 2 40949 51.6378 144.4228 0004695 271.6828 88.3631 15.69667631 25669 LQSat 1 40958U 15057A 16077.86901699 .00000288 00000-0 52682-4 0 9998 2 40958 98.0207 153.9390 0019727 86.5525 273.7924 14.72832649 23949 AO-85 1 40967U 15058D 16077.52068459 .00002068 00000-0 23101-3 0 00734 2 40967 064.7779 163.7796 0212603 233.6565 124.4692 14.74873672009759 ATHENOXAT-1 1 41168U 15077C 16075.88713271 .00006680 00000-0 36515-3 0 9999 2 41168 14.9897 272.3591 0012838 161.1602 322.1967 15.09375723 13633 AGGIESAT4 1 41313U 98067HP 16077.75139542 .00021657 00000-0 30576-3 0 9994 2 41313 51.6458 153.6335 0004215 232.1034 127.9577 15.56497876 7470 ChubuSat-2 1 41338U 16012B 16077.51372002 .00001440 00000-0 10829-3 0 9992 2 41338 31.0033 131.6885 0013982 221.3880 138.5696 14.99258465 4386 ChubuSat-3 1 41339U 16012C 16077.50904470 .00001345 00000-0 10009-3 0 9996 2 41339 31.0089 131.6477 0013784 227.0541 132.8937 14.99495676 4351 Horyu-4 1 41340U 16012D 16077.50328846 .00002154 00000-0 16296-3 0 9998 2 41340 31.0050 131.6011 0014407 231.2193 128.7155 14.99816539 4371 /EX
